(21409) Forbes = 1998 FC65 = 1974 HV1

Discovered at Socorro on 1998-03-20 by LINEAR.
(21409) Forbes = 1998 FC65

Michael Andrew Forbes (b. 1987) is a finalist in the 2005 Intel Science Talent Search, a science competition for high school seniors, for his computer science project. He attends the Montgomery Blair High School, Silver Spring, Maryland. [Ref: Minor Planet Circ. 53762]

Orbit

Orbit type: Main Belt

Note: WebGL enabled browser required.

epoch2023-09-13.0
epoch JD2460200.5
perihelion date2022-08-18.24575
perihelion JD2459809.74575
argument of perihelion (°)44.50098
ascending node (°)193.48942
inclination (°)5.57170
eccentricity0.1230331
perihelion distance (AU)1.9965517
Tisserand w.r.t. Jupiter3.6
ΔV w.r.t. Earth (km/sec)8.9
semimajor axis (AU)2.2766557
mean anomaly (°)112.11443
mean daily motion (°/day)0.28691800
aphelion distance (AU)2.557
period (years)3.44
P-vector [x]-0.53083378
P-vector [y]-0.80210309
P-vector [z]-0.27358020
Q-vector [x]0.84717328
Q-vector [y]-0.51086115
Q-vector [z]-0.14600794
absolute magnitude15.4
phase slope0.15
uncertainty0
referenceMPEC 2024-B149
observations used1808
oppositions21
arc length (days)18176
first opposition used1974
last opposition used2024
residual rms (arc-secs)0.66
perturbers coarse indicatorM-v
perturbers precise indicator003Ek
first observation date used1974-04-24.0
last observation date used2024-01-28.0
computer nameMPCLINUX
JD of orbit computation2456966.925528
perihelion JD uncertainty (days)4.7704E-05
argument of perihelion uncertainty (°)3.5595E-05
ascending node uncertainty (°)3.2881E-05
inclination uncertainty (°)4.0503E-06
eccentricity uncertainty 3.6885E-08
perihelion distance uncertainty (AU)8.2686E-08
Minimum Orbit Intersection Distances (in AU)
for orbit epoch: 2460200.5, reference: E2024-BE9
Mercury1.53744
Venus1.27324
Earth0.98865
Mars0.42229
Jupiter2.43518
Saturn6.52976
Uranus16.2332
Neptune27.3049

Observations

1840 total observations over interval: 1974 04 24.18415 – 2024 01 28.252836
These data are available for download (format description).

Date (UT) J2000 RA J2000 Dec Magn Location Ref
1974 04 24.18415 13 16 15.93 -05 28 02.4 17.5   805 – Santiago-Cerro El Roble MPC 3869
1974 04 25.15008 13 15 32.07 -05 19 43.2   805 – Santiago-Cerro El Roble MPC 3869
1981 05 03.62015 15 22 57.22 -12 10 49.0   413 – Siding Spring Observatory MPS 2550
1981 05 03.66876 15 22 54.59 -12 10 25.0   413 – Siding Spring Observatory MPS 2550
1998 03 20.23231 13 04 15.00 -07 45 36.4   704 – Lincoln Laboratory ETS, New Mexico MPS 785
1998 03 20.25241 13 04 14.14 -07 45 26.6   704 – Lincoln Laboratory ETS, New Mexico MPS 785
1998 03 20.27250 13 04 13.30 -07 45 17.2   704 – Lincoln Laboratory ETS, New Mexico MPS 785
1998 03 20.29272 13 04 12.42 -07 45 07.1 17.8   704 – Lincoln Laboratory ETS, New Mexico MPS 785
1998 03 20.31279 13 04 11.58 -07 44 58.1 18.2   704 – Lincoln Laboratory ETS, New Mexico MPS 785
1998 03 22.24751 13 02 51.59 -07 29 15.5 18.0   704 – Lincoln Laboratory ETS, New Mexico MPS 785
1998 03 22.26771 13 02 50.67 -07 29 02.9 18.2   704 – Lincoln Laboratory ETS, New Mexico MPS 785
1998 03 22.28791 13 02 49.80 -07 28 54.4 18.2   704 – Lincoln Laboratory ETS, New Mexico MPS 785
1998 03 22.30800 13 02 48.87 -07 28 44.3 18.2   704 – Lincoln Laboratory ETS, New Mexico MPS 785
1998 03 22.32808 13 02 47.98 -07 28 35.4 18.8   704 – Lincoln Laboratory ETS, New Mexico MPS 785
1998 03 24.300707 13 01 21.56 -07 11 51.0 17.7 R 699 – Lowell Observatory-LONEOS MPS 785
1998 03 24.310637 13 01 21.21 -07 11 47.0 17.1 R 699 – Lowell Observatory-LONEOS MPS 785
1998 03 24.320555 13 01 20.72 -07 11 41.3 17.3 R 699 – Lowell Observatory-LONEOS MPS 785
1998 03 25.32738 13 00 35.01 -07 02 55.6 17.7   704 – Lincoln Laboratory ETS, New Mexico MPS 961
1998 03 25.34737 13 00 34.09 -07 02 44.8   704 – Lincoln Laboratory ETS, New Mexico MPS 961
1998 03 25.36764 13 00 33.09 -07 02 34.3 18.0   704 – Lincoln Laboratory ETS, New Mexico MPS 961
1998 03 25.38794 13 00 32.06 -07 02 23.9   704 – Lincoln Laboratory ETS, New Mexico MPS 961
1998 03 25.40807 13 00 31.06 -07 02 14.0 18.7   704 – Lincoln Laboratory ETS, New Mexico MPS 961
1998 04 04.26785 12 52 26.80 -05 30 33.2 16.6 R 699 – Lowell Observatory-LONEOS MPS 961
1998 04 04.28025 12 52 26.15 -05 30 25.9 16.8 R 699 – Lowell Observatory-LONEOS MPS 961
1998 04 04.29266 12 52 25.39 -05 30 18.3 16.9 R 699 – Lowell Observatory-LONEOS MPS 961
1998 04 19.25079 12 40 23.41 -03 10 49.6 17.9   704 – Lincoln Laboratory ETS, New Mexico MPS 5856
1998 04 19.27241 12 40 22.44 -03 10 38.0 18.3   704 – Lincoln Laboratory ETS, New Mexico MPS 5856
1998 04 19.29399 12 40 21.50 -03 10 27.2 18.6   704 – Lincoln Laboratory ETS, New Mexico MPS 5856
1998 04 19.31540 12 40 20.50 -03 10 16.8 18.6   704 – Lincoln Laboratory ETS, New Mexico MPS 5856
1998 04 20.15550 12 39 45.63 -03 03 07.4 18.2   704 – Lincoln Laboratory ETS, New Mexico MPS 961
1998 04 20.17580 12 39 44.70 -03 02 56.9 18.2   704 – Lincoln Laboratory ETS, New Mexico MPS 961
1998 04 20.19594 12 39 43.76 -03 02 46.4 18.2   704 – Lincoln Laboratory ETS, New Mexico MPS 961
1998 04 20.21684 12 39 42.85 -03 02 36.3 18.3   704 – Lincoln Laboratory ETS, New Mexico MPS 961
1998 04 20.23690 12 39 42.01 -03 02 26.3 18.7   704 – Lincoln Laboratory ETS, New Mexico MPS 961
1998 04 22.15292 12 38 25.13 -02 46 33.3   704 – Lincoln Laboratory ETS, New Mexico MPS 961
1998 04 22.17175 12 38 24.31 -02 46 23.9   704 – Lincoln Laboratory ETS, New Mexico MPS 961
1998 04 22.19053 12 38 23.55 -02 46 15.0 18.6   704 – Lincoln Laboratory ETS, New Mexico MPS 961
1998 04 22.20945 12 38 22.77 -02 46 05.8 18.8   704 – Lincoln Laboratory ETS, New Mexico MPS 961
1998 04 22.22822 12 38 22.01 -02 45 56.8 18.8   704 – Lincoln Laboratory ETS, New Mexico MPS 961
1998 04 24.16828 12 37 09.26 -02 30 34.8 17.7 R 699 – Lowell Observatory-LONEOS MPS 961
1998 04 24.17819 12 37 08.87 -02 30 29.4   699 – Lowell Observatory-LONEOS MPS 961
1998 04 24.18810 12 37 08.43 -02 30 26.3   699 – Lowell Observatory-LONEOS MPS 961
1998 04 28.25832 12 34 53.49 -02 00 39.3 17.9 R 699 – Lowell Observatory-LONEOS MPS 1261
1998 04 28.27321 12 34 52.99 -02 00 33.0   699 – Lowell Observatory-LONEOS MPS 1261
1998 04 28.28809 12 34 52.55 -02 00 26.7   699 – Lowell Observatory-LONEOS MPS 1261
1998 04 30.15688 12 34 00.13 -01 48 02.1 17.7 R 699 – Lowell Observatory-LONEOS MPS 1261
1998 04 30.17176 12 33 59.69 -01 47 55.8   699 – Lowell Observatory-LONEOS MPS 1261
1998 04 30.18666 12 33 59.24 -01 47 50.4   699 – Lowell Observatory-LONEOS MPS 1261
1998 05 01.16128 12 33 34.19 -01 41 40.8 18.2 R 699 – Lowell Observatory-LONEOS MPS 1261
1998 05 01.17618 12 33 33.77 -01 41 35.6   699 – Lowell Observatory-LONEOS MPS 1261
1998 05 01.19108 12 33 33.40 -01 41 29.9   699 – Lowell Observatory-LONEOS MPS 1261
1999 09 05.38309 01 06 06.95 +08 35 48.0 18.7 R 699 – Lowell Observatory-LONEOS MPS 60537
1999 09 05.41376 01 06 06.04 +08 35 38.7   699 – Lowell Observatory-LONEOS MPS 60537
1999 09 05.44444 01 06 05.04 +08 35 29.6   699 – Lowell Observatory-LONEOS MPS 60537
1999 10 01.27246 00 46 26.49 +05 31 28.0 18.3 R 703 – Catalina Sky Survey MPS 6694
1999 10 01.28482 00 46 25.70 +05 31 20.6 18.0 R 703 – Catalina Sky Survey MPS 6694
1999 10 01.29719 00 46 24.99 +05 31 15.7 18.3 R 703 – Catalina Sky Survey MPS 6694
1999 10 01.30958 00 46 24.37 +05 31 09.0 18.2 R 703 – Catalina Sky Survey MPS 6694
1999 10 04.29532 00 43 39.43 +05 05 53.7 18.7   704 – Lincoln Laboratory ETS, New Mexico MPS 6694
1999 10 04.30874 00 43 38.71 +05 05 47.9 19.2   704 – Lincoln Laboratory ETS, New Mexico MPS 6694
1999 10 04.32215 00 43 37.82 +05 05 40.3 19.0   704 – Lincoln Laboratory ETS, New Mexico MPS 6694
1999 10 04.33554 00 43 37.10 +05 05 34.2 18.7   704 – Lincoln Laboratory ETS, New Mexico MPS 6694
1999 10 05.28573 00 42 44.62 +04 57 31.3 18.3   704 – Lincoln Laboratory ETS, New Mexico MPS 6694
1999 10 05.29935 00 42 43.87 +04 57 24.2 18.6   704 – Lincoln Laboratory ETS, New Mexico MPS 6694
1999 10 05.31325 00 42 43.04 +04 57 16.6 18.8   704 – Lincoln Laboratory ETS, New Mexico MPS 6694
1999 10 05.32689 00 42 42.26 +04 57 09.6 18.6   704 – Lincoln Laboratory ETS, New Mexico MPS 6694
1999 10 05.34062 00 42 41.46 +04 57 03.1 18.5   704 – Lincoln Laboratory ETS, New Mexico MPS 6694
1999 10 07.27345 00 40 55.18 +04 40 42.5 18.4 R 703 – Catalina Sky Survey MPS 6694
1999 10 07.28577 00 40 54.47 +04 40 35.8 18.0 R 703 – Catalina Sky Survey MPS 6694
1999 10 07.29798 00 40 53.77 +04 40 29.6 18.3 R 703 – Catalina Sky Survey MPS 6694
1999 10 07.31022 00 40 53.09 +04 40 23.3 18.2 R 703 – Catalina Sky Survey MPS 6694
1999 10 07.31213 00 40 52.93 +04 40 22.1 18.7   704 – Lincoln Laboratory ETS, New Mexico MPS 6694
1999 10 07.32258 00 40 52.36 +04 40 17.0 19.1   704 – Lincoln Laboratory ETS, New Mexico MPS 6694
1999 10 07.34387 00 40 51.10 +04 40 06.5 18.9   704 – Lincoln Laboratory ETS, New Mexico MPS 6694
1999 10 09.17968 00 39 11.28 +04 24 39.0 18.2   704 – Lincoln Laboratory ETS, New Mexico MPS 6694
1999 10 09.19514 00 39 10.40 +04 24 31.9 18.1   704 – Lincoln Laboratory ETS, New Mexico MPS 6694
1999 10 09.21059 00 39 09.54 +04 24 23.9 18.4   704 – Lincoln Laboratory ETS, New Mexico MPS 6694
1999 10 09.22601 00 39 08.68 +04 24 16.4 18.0   704 – Lincoln Laboratory ETS, New Mexico MPS 6694
1999 10 09.24147 00 39 07.79 +04 24 08.5 18.2   704 – Lincoln Laboratory ETS, New Mexico MPS 6694
1999 10 15.24898 00 33 51.78 +03 34 52.1 18.6   704 – Lincoln Laboratory ETS, New Mexico MPS 6694
1999 10 15.26529 00 33 50.90 +03 34 44.8 18.8   704 – Lincoln Laboratory ETS, New Mexico MPS 6694
1999 10 15.28258 00 33 50.00 +03 34 36.8 18.4   704 – Lincoln Laboratory ETS, New Mexico MPS 6694
1999 10 15.29930 00 33 49.13 +03 34 28.5 18.4   704 – Lincoln Laboratory ETS, New Mexico MPS 6694
1999 10 15.31577 00 33 48.25 +03 34 20.4 18.0   704 – Lincoln Laboratory ETS, New Mexico MPS 6694
1999 11 03.16014 00 21 15.73 +01 29 08.9 18.4 R 703 – Catalina Sky Survey MPS 7290
